Theta_e
347 346 348 348 349 349 348 348 350 350 349 350 349 350 350 349 349 349 349 348 348 349 349 348 348 347 347 347 348 347 346 345 345 343 342 342 341 341 341 340 340 340 340 341 341 341 341 342 343 344 344 346 346 345 344 343 342 340 339 339 338 339 339 340 340 339 339 339 341 343 343 343 344 344 344 344 343 343 342 343 344 341 342 343 347
345 348 348 351 348 348 349 350 351 351 350 349 349 349 350 349 349 349 349 349 349 349 348 348 347 347 347 347 347 347 346 345 346 342 341 340 340 341 340 340 339 339 340 340 340 341 340 341 342 344 347 347 345 344 343 342 341 339 338 338 338 338 338 339 339 339 339 340 339 339 339 341 341 343 344 343 342 341 340 341 341 340 339 344 345
347 348 350 350 348 348 349 348 349 350 350 350 350 350 350 349 349 349 349 349 348 348 348 348 347 347 347 347 347 347 346 346 345 342 341 341 340 340 340 340 339 339 339 340 340 340 339 339 340 345 347 346 345 344 342 341 339 337 337 337 337 338 338 339 339 340 340 340 341 340 339 338 339 340 342 342 342 341 338 339 339 339 336 341 343
345 347 350 349 346 348 348 349 349 350 350 350 350 349 349 349 348 348 348 348 348 349 349 348 346 346 346 346 347 346 346 345 344 342 341 340 340 340 339 339 339 339 339 339 339 339 338 338 345 347 345 344 344 341 340 341 338 336 336 336 337 338 338 338 339 340 340 340 338 335 333 332 334 338 340 340 341 341 338 339 339 339 340 341 341
345 347 348 350 351 348 348 348 349 350 350 350 349 349 349 348 348 348 348 347 347 348 348 347 345 345 345 346 346 345 345 343 343 342 341 340 340 340 339 339 339 339 339 339 339 339 339 341 346 346 343 343 342 339 339 338 337 336 336 336 337 337 338 338 339 339 341 339 337 334 330 330 331 335 337 339 339 338 338 339 339 339 339 339 340
345 347 348 347 350 349 347 349 349 349 350 349 348 348 348 347 347 347 348 347 347 347 347 346 345 344 345 346 346 345 344 343 342 340 341 341 340 339 339 339 339 339 339 338 339 338 345 345 345 345 345 343 340 339 338 338 337 336 336 336 337 338 338 339 339 339 339 337 335 332 330 330 330 331 336 337 337 336 337 338 338 339 338 338 338
344 348 347 348 347 348 345 348 349 349 349 348 348 347 347 347 347 346 347 347 347 347 346 345 344 345 346 345 345 344 344 342 340 339 339 340 340 339 338 338 339 338 339 338 341 345 345 345 345 344 343 342 342 340 339 338 336 336 337 336 336 337 337 338 340 338 336 333 330 330 330 331 331 332 336 336 337 336 336 337 338 338 338 337 337
347 348 347 348 348 346 346 348 348 349 349 349 348 347 347 347 346 346 346 346 347 347 347 345 344 345 345 344 345 345 344 343 339 338 338 339 339 339 338 338 338 339 338 339 342 343 343 343 343 343 342 341 341 340 339 338 337 336 337 337 337 337 338 339 340 335 335 331 331 330 329 330 330 331 337 336 336 335 337 337 337 337 338 337 335
345 347 347 348 349 342 345 348 347 348 347 348 348 347 346 345 346 346 346 346 346 347 347 345 344 344 345 345 344 344 344 342 339 337 337 339 339 338 338 337 338 338 338 340 342 343 343 343 342 342 342 340 339 339 338 337 337 337 338 337 337 337 337 338 337 334 330 329 329 330 330 329 329 330 335 336 336 336 336 334 335 337 337 336 335
346 346 347 348 349 340 343 347 348 347 346 346 347 347 347 346 345 345 345 345 346 346 346 346 345 344 345 344 344 344 344 340 338 337 337 339 339 338 338 337 337 337 337 338 338 341 342 341 342 341 341 339 338 337 337 337 337 336 336 336 336 336 336 340 334 332 328 329 329 329 330 333 330 333 336 338 335 335 335 335 335 335 335 335 335
346 346 347 350 349 341 345 346 347 346 345 346 347 347 346 346 345 345 345 345 345 346 346 346 345 345 345 344 344 343 342 340 337 336 337 338 338 338 337 337 336 337 336 336 337 337 338 340 339 338 337 337 335 335 335 336 335 335 335 335 335 335 336 336 331 329 329 334 332 331 334 336 331 332 337 337 336 336 336 335 335 335 335 334 334
344 346 347 348 344 340 344 344 345 346 346 346 346 347 346 345 345 344 345 345 345 346 346 345 345 344 344 344 343 342 341 339 337 337 337 338 338 337 337 336 336 335 335 335 335 335 336 337 336 336 335 334 334 334 334 334 334 334 334 333 334 334 336 333 332 330 333 333 334 335 335 335 334 333 337 339 339 337 336 338 337 335 336 336 336
343 345 347 349 349 337 342 344 344 345 346 346 345 346 346 345 344 344 345 346 346 346 345 345 345 344 344 343 343 342 342 340 337 337 338 338 337 337 336 336 335 335 335 334 334 335 335 335 335 334 333 333 333 333 333 333 333 333 332 332 332 332 333 333 331 332 333 334 334 334 334 335 335 337 338 339 338 338 338 338 338 338 338 338 337
344 344 346 347 348 341 339 343 343 343 344 346 345 345 346 345 345 345 345 346 346 346 345 345 345 344 343 343 342 342 341 339 337 336 336 337 336 336 336 335 336 335 335 334 333 332 332 333 332 331 331 331 332 332 332 332 332 332 331 331 330 331 330 330 331 330 332 331 333 334 334 334 335 338 337 340 338 338 337 337 337 337 337 337 337
345 347 347 348 348 347 338 339 341 342 343 344 345 345 346 345 345 345 345 345 346 345 345 344 344 343 343 343 342 342 341 338 336 335 334 334 334 335 335 335 335 335 334 334 333 331 332 331 329 329 329 330 330 331 331 331 330 330 330 330 330 330 328 328 329 329 328 329 329 332 333 334 336 336 338 338 338 336 339 339 336 336 336 336 336
345 346 347 348 348 347 344 339 336 339 339 341 343 344 346 346 346 346 345 345 346 345 345 344 343 343 343 342 341 341 340 338 336 334 332 332 333 334 334 334 334 333 333 333 331 330 329 327 326 326 327 329 330 330 330 330 329 328 328 328 329 328 326 326 328 327 327 326 326 328 331 332 335 336 336 338 337 337 337 335 336 337 336 337 336
344 344 345 345 347 347 347 345 340 332 334 337 338 340 342 346 347 346 346 345 345 345 344 343 341 342 341 341 340 340 339 337 336 334 332 331 331 332 332 333 333 333 332 331 329 328 326 325 324 326 328 329 329 329 329 328 327 327 327 327 329 327 325 324 325 325 325 328 327 329 329 330 332 334 336 336 336 336 335 336 336 336 335 335 334
342 343 341 343 344 345 346 346 346 344 345 337 331 334 338 343 345 345 344 345 345 345 344 343 342 341 340 340 339 338 338 336 335 333 332 330 330 330 331 331 331 331 330 329 328 327 326 324 325 327 328 328 328 328 327 326 325 324 325 326 326 325 324 322 325 324 324 326 325 327 328 332 331 332 334 335 335 335 335 335 334 334 334 334 334
338 339 340 340 341 342 343 345 346 346 346 346 346 341 331 337 340 341 341 343 343 342 341 341 340 339 338 336 335 333 333 332 332 332 331 330 329 328 330 330 331 331 330 329 328 327 325 326 326 326 326 326 325 325 324 323 322 322 323 325 323 323 322 322 323 323 324 324 325 326 327 332 331 332 331 333 334 335 335 334 333 333 332 332 333
337 338 339 340 338 338 341 342 343 345 345 345 346 345 334 329 337 339 339 341 339 338 338 338 334 332 331 331 329 332 329 330 326 330 328 329 327 326 328 329 329 329 329 328 327 326 325 324 324 324 323 322 321 320 320 321 321 321 322 322 321 321 324 324 324 323 323 323 325 326 331 331 332 333 331 330 332 332 333 332 332 332 332 332 331
333 335 336 337 338 337 338 340 341 342 344 345 345 343 341 332 332 329 332 335 335 335 333 328 325 324 326 325 328 335 333 333 333 331 324 329 321 322 326 327 327 327 326 325 325 323 322 321 322 321 320 319 316 315 315 317 318 319 321 320 319 323 323 323 323 322 323 324 326 328 330 330 330 332 332 330 329 329 330 330 331 331 331 331 330
330 331 333 334 336 336 337 338 339 341 341 343 344 344 343 336 344 342 342 336 330 328 335 341 335 340 328 333 338 335 334 335 333 329 329 328 325 321 323 326 326 325 323 323 323 321 321 320 320 318 317 317 319 316 315 315 315 317 316 316 319 321 322 322 320 319 320 322 324 328 329 329 330 331 332 332 331 330 330 330 330 330 331 330 330
330 330 331 333 334 334 335 336 337 340 341 341 343 344 343 342 343 341 341 336 338 340 343 341 341 342 340 339 336 337 337 334 333 330 329 322 325 321 323 325 325 324 322 322 321 320 319 319 318 316 315 318 315 315 314 316 315 313 313 315 316 318 319 319 319 319 319 319 322 326 328 328 329 330 330 331 331 329 329 329 329 330 329 329 329
330 331 331 330 333 333 332 332 335 338 339 340 341 341 343 343 341 343 341 341 341 342 342 341 341 340 340 338 338 337 337 333 324 323 323 327 324 320 319 320 320 320 319 319 319 318 318 316 316 316 317 313 313 311 312 312 312 313 313 313 314 315 317 317 317 317 317 318 319 325 328 328 328 328 330 330 330 329 329 330 330 329 328 329 329
331 333 332 329 331 331 331 332 333 336 338 338 339 340 341 344 341 341 340 342 340 342 341 340 340 340 340 339 339 338 337 333 331 328 328 327 326 325 323 322 320 318 316 316 315 316 317 316 314 314 312 311 310 309 310 310 310 310 310 311 312 313 314 315 316 315 315 315 315 322 326 327 328 329 330 330 328 328 328 328 328 328 328 328 327
329 327 328 330 330 330 331 331 332 335 337 337 338 339 340 341 342 342 341 341 341 340 339 340 341 341 341 340 338 336 337 333 331 331 328 326 325 324 324 322 320 319 318 317 318 317 315 313 312 310 308 308 307 307 307 308 308 307 307 309 310 311 311 312 313 314 314 313 312 318 322 326 326 329 329 329 329 327 327 328 328 328 327 326 325
326 326 329 329 329 329 330 330 331 334 336 337 337 339 340 341 340 342 340 339 342 341 341 339 339 339 341 339 338 337 335 334 333 332 329 327 325 324 324 323 321 319 319 318 317 315 312 310 309 307 307 306 306 306 305 306 306 306 306 307 308 309 309 310 311 312 312 311 311 314 319 321 325 327 328 328 329 328 328 326 327 326 325 324 323
327 328 328 327 326 327 328 329 331 332 334 336 336 337 338 338 338 338 340 339 339 339 341 340 340 339 339 337 337 337 337 334 333 333 330 328 326 325 323 322 321 320 319 317 314 312 310 308 307 306 305 304 303 303 303 303 304 304 304 305 306 307 308 308 309 310 311 310 309 310 315 319 321 323 325 325 327 326 326 327 326 325 324 323 322
325 326 328 327 327 328 327 327 329 329 331 334 334 335 336 336 335 337 336 333 339 340 340 339 339 339 340 338 338 336 336 336 334 333 332 329 327 325 323 321 320 318 316 314 314 309 307 306 305 304 303 302 302 301 301 301 301 301 302 303 304 305 306 306 307 308 310 309 308 306 310 315 317 319 321 323 324 323 325 324 325 324 323 321 319
324 326 326 326 327 326 325 326 327 327 328 329 331 333 334 335 334 334 336 329 334 337 339 338 338 338 337 338 338 337 337 337 335 334 332 331 328 326 324 322 320 316 314 311 309 308 306 305 304 303 302 301 299 299 299 299 299 300 300 300 301 302 303 303 305 306 307 308 308 305 306 309 314 316 317 319 321 322 322 323 323 323 322 320 319
323 324 324 323 324 323 323 324 325 325 328 328 329 331 333 333 333 333 332 333 334 333 336 337 337 337 336 337 338 337 336 337 336 335 332 327 325 322 320 318 317 316 313 313 312 309 306 303 302 301 300 299 298 298 298 297 298 298 299 299 300 301 301 301 302 303 304 305 307 306 304 304 307 311 314 315 317 318 318 319 319 320 320 320 319
322 321 321 322 321 321 321 322 322 324 325 327 329 330 331 332 332 331 330 332 333 332 333 334 332 334 336 336 336 334 332 332 330 328 326 323 320 319 318 316 314 314 313 312 311 306 304 303 302 301 300 299 297 297 297 297 297 297 298 298 298 298 298 299 300 300 300 302 303 304 303 301 301 304 308 313 315 315 315 315 316 317 317 318 318
320 320 320 319 319 319 319 320 321 322 323 326 327 328 330 331 329 329 329 328 330 331 332 332 332 333 333 334 334 333 331 329 329 326 321 321 319 317 315 313 312 311 310 308 305 303 301 300 300 299 298 297 297 296 298 296 296 296 297 296 297 296 297 297 297 297 298 298 299 300 300 299 297 298 301 304 309 311 312 312 313 314 316 316 316
319 320 319 318 318 319 319 320 320 320 323 325 326 326 328 329 329 329 328 327 327 327 329 330 330 329 330 332 332 331 330 329 327 326 323 321 318 315 313 311 311 309 307 304 302 301 299 299 298 297 297 296 295 295 295 294 295 295 296 296 295 295 296 296 295 296 296 296 296 296 295 295 294 293 294 298 301 305 308 310 310 311 312 312 313
318 318 317 317 317 317 317 317 318 320 321 323 324 325 327 327 327 327 326 327 325 325 323 322 322 324 327 329 331 330 330 329 328 325 323 320 316 313 311 310 310 308 307 305 302 300 300 298 297 297 297 296 296 295 295 294 295 295 295 295 295 295 295 295 295 295 295 295 295 295 295 294 294 293 293 292 295 298 301 305 308 308 310 311 312
317 316 316 317 316 316 316 317 318 318 319 320 322 324 324 325 325 320 322 323 322 320 319 320 319 320 322 322 322 325 331 328 327 325 320 317 315 311 310 309 308 307 305 303 302 299 299 299 298 298 295 294 294 294 295 295 295 295 295 295 294 294 294 294 295 294 294 294 294 294 294 294 294 294 295 292 291 294 297 298 301 304 306 307 308
316 316 315 315 315 315 315 316 315 316 317 319 319 318 321 323 321 321 320 317 315 316 317 318 319 319 318 319 319 319 321 325 324 322 316 315 313 311 310 308 308 307 305 302 301 301 299 299 298 298 296 294 294 294 294 294 294 294 295 295 295 295 294 293 294 294 295 294 294 294 294 294 294 296 293 293 292 292 294 295 296 298 299 302 305
315 315 315 314 314 315 314 315 315 317 317 317 315 316 316 317 317 314 313 313 312 312 312 315 317 317 317 316 317 317 318 316 317 316 314 313 312 311 311 310 309 307 304 303 301 300 299 298 297 297 296 294 293 293 293 293 295 294 294 294 294 294 293 294 294 294 294 293 293 293 293 293 293 293 293 293 292 292 292 292 293 293 294 297 301
314 314 314 314 314 315 314 314 314 316 315 314 312 311 311 311 311 311 310 310 310 309 310 311 313 315 316 315 314 315 315 316 316 314 313 312 311 310 310 310 308 306 304 301 300 299 299 298 297 295 296 296 294 294 294 294 294 293 293 293 293 293 294 294 293 293 292 293 293 294 294 292 293 293 292 292 292 292 291 290 290 290 289 293 296
313 313 313 314 314 314 314 313 313 314 313 311 310 309 309 310 310 308 308 307 307 306 307 308 309 311 313 313 314 314 314 314 315 314 312 311 310 310 309 309 307 305 302 300 299 299 297 296 296 296 295 295 296 295 294 293 292 292 291 292 293 293 293 293 293 293 293 293 292 292 292 292 292 292 292 292 291 291 290 289 289 289 289 290 292
313 312 312 312 313 312 312 311 312 312 311 310 309 309 309 307 308 309 307 305 305 304 304 305 306 306 308 308 309 311 314 314 314 315 313 310 311 311 310 309 308 305 303 301 300 299 297 297 297 297 295 293 293 294 294 293 291 289 290 290 290 292 292 292 292 293 292 292 292 292 292 292 292 291 291 291 291 290 289 289 289 288 288 288 288
311 311 311 312 313 312 312 311 311 310 310 311 309 310 311 310 309 308 306 304 302 303 302 303 303 303 304 305 306 308 310 312 313 314 315 313 312 311 309 308 307 305 304 303 300 299 299 298 298 296 296 294 292 294 294 293 291 288 287 287 288 289 290 290 291 291 292 292 292 292 292 292 291 291 291 290 290 290 289 289 288 288 287 287 287
311 311 312 312 312 311 311 311 311 309 310 311 311 311 312 313 311 307 306 301 301 302 303 301 301 302 305 302 303 306 308 310 312 313 314 314 312 310 307 306 306 305 303 301 300 299 298 297 297 296 294 295 294 296 295 296 292 291 291 288 285 286 287 288 289 290 291 291 291 291 291 291 291 291 290 290 289 289 289 288 288 287 287 286 286
311 310 311 311 311 311 311 311 310 310 309 310 310 313 307 304 303 303 303 303 299 298 300 300 301 300 300 301 301 304 307 308 310 311 311 311 310 308 307 306 305 305 303 300 299 298 298 297 298 297 296 292 293 294 297 297 295 292 287 291 288 289 284 285 286 288 290 290 290 290 291 290 290 291 290 289 288 288 288 288 287 287 286 286 286
310 310 311 311 310 311 311 311 310 310 310 309 308 303 302 301 300 299 299 298 298 298 298 299 300 300 299 299 299 300 303 306 308 309 309 309 309 308 306 306 305 305 304 301 299 299 299 298 298 297 296 294 293 294 295 297 299 298 296 292 289 289 290 287 286 285 289 288 289 289 290 290 290 290 289 289 288 288 288 287 287 287 286 286 285
310 311 311 311 311 311 311 311 310 311 310 307 305 304 302 301 300 299 298 299 297 297 298 299 299 299 300 300 298 298 300 303 305 307 307 307 307 308 307 306 305 304 304 302 301 300 299 299 299 298 297 298 295 293 293 296 297 298 296 294 295 293 289 287 288 284 288 289 288 289 289 289 289 290 289 288 288 287 287 287 287 286 286 285 285
310 312 311 311 311 311 311 309 309 310 309 305 303 303 302 302 302 302 302 302 301 300 302 303 302 302 301 299 297 297 298 300 300 302 304 305 305 305 307 306 305 305 304 303 301 300 300 300 300 299 298 298 298 294 295 293 294 295 295 296 296 295 295 288 287 287 283 285 287 288 288 289 289 289 288 288 288 287 287 287 287 286 285 285 285
311 311 311 311 310 310 310 308 309 307 307 304 303 303 302 303 303 305 305 305 305 304 303 302 302 299 298 297 295 295 296 297 298 300 301 301 302 303 306 307 306 305 304 303 302 301 301 302 301 301 301 299 299 297 296 294 292 293 295 295 293 296 300 299 300 291 290 284 284 287 288 288 288 288 288 288 287 287 286 286 286 286 285 285 284
311 310 310 311 310 310 309 309 307 305 304 303 303 303 303 303 305 307 306 307 308 305 301 298 298 298 297 296 295 294 294 295 296 297 298 299 299 302 304 305 306 305 303 304 303 302 302 300 300 301 301 300 300 302 298 294 295 294 292 293 294 293 294 297 297 297 291 289 286 284 284 286 287 287 287 288 287 287 286 285 285 285 285 284 284
311 311 310 310 310 310 309 308 306 304 304 302 302 303 303 303 305 307 308 305 300 299 298 297 297 298 297 296 295 293 293 293 294 296 297 298 299 301 303 304 304 303 302 303 303 302 302 301 302 301 301 301 301 301 299 297 299 294 295 294 292 291 292 292 293 293 292 294 289 285 286 284 283 286 287 286 286 286 286 285 285 285 284 284 283
310 309 309 309 309 309 308 306 307 305 303 302 302 302 303 304 304 305 307 302 301 299 297 297 297 298 297 296 295 294 293 293 293 294 296 297 298 300 301 302 303 302 301 302 301 301 300 300 300 301 301 300 298 299 298 299 296 295 295 293 291 292 291 290 289 290 291 289 289 287 287 286 288 285 286 287 286 286 285 285 285 284 284 284 283
Wind_Speed
7 9 10 10 8 6 5 5 8 9 9 9 7 8 9 10 9 10 11 11 12 12 13 14 14 14 13 15 16 16 17 17 17 17 17 17 16 16 16 16 16 15 14 13 12 12 13 13 14 15 16 18 20 20 20 19 19 19 19 18 19 18 18 17 16 17 19 21 22 22 22 21 23 22 22 23 22 22 21 21 18 15 13 14 22
8 7 8 9 7 5 4 6 8 9 9 10 10 9 9 10 9 11 11 10 11 12 13 14 14 13 13 15 16 16 16 17 16 16 16 17 16 16 16 16 16 16 15 14 13 13 13 14 14 15 18 20 20 19 20 19 19 18 18 18 18 18 17 15 13 11 12 17 20 22 21 23 23 22 22 23 22 21 20 21 20 14 11 20 20
7 7 7 9 7 4 4 2 6 9 9 10 9 10 10 9 9 10 11 10 11 11 12 13 13 13 13 15 15 15 15 16 16 16 16 16 16 16 16 16 16 16 15 14 14 13 13 14 14 17 20 20 19 19 19 18 17 17 17 17 17 16 15 14 12 10 7 7 12 16 17 20 21 22 23 22 22 21 20 20 20 18 14 21 19
8 7 7 9 6 5 5 4 7 8 9 10 9 9 9 9 10 10 11 11 11 12 13 13 13 13 13 14 15 15 15 15 16 16 16 16 16 16 15 16 16 16 15 15 14 14 13 14 16 20 21 19 19 18 18 18 17 16 16 17 16 15 14 13 12 11 8 10 13 13 11 13 15 21 22 22 22 22 20 20 21 21 22 21 21
7 7 8 9 8 7 6 5 7 9 9 9 9 9 9 9 9 10 10 10 11 12 13 13 13 13 13 14 15 15 15 15 15 15 16 16 16 16 15 16 16 15 15 15 15 14 14 17 19 21 20 19 19 18 17 17 17 16 16 16 15 14 14 13 12 9 7 13 13 12 12 13 12 19 20 22 23 21 21 21 21 21 21 23 23
8 7 8 8 8 9 5 7 8 8 9 9 9 9 9 8 9 9 10 10 11 11 13 13 12 13 13 14 14 14 14 15 15 15 16 16 15 15 15 15 15 15 16 16 16 16 18 19 19 21 20 19 19 18 18 17 16 15 15 15 14 14 13 13 12 8 6 13 12 10 13 14 14 13 21 20 22 21 22 22 23 22 21 22 21
8 7 7 8 8 8 7 8 7 8 9 10 9 8 9 8 8 9 10 10 11 11 12 13 12 13 13 13 13 14 14 15 15 15 16 15 15 15 15 15 15 15 16 16 17 18 18 19 19 19 19 19 19 18 17 17 16 15 15 15 14 13 13 12 9 11 16 12 10 10 11 14 13 11 21 19 19 21 22 23 23 23 22 21 21
7 5 6 8 8 9 8 8 6 7 9 10 9 9 9 8 8 8 9 10 10 11 12 12 12 13 13 13 13 13 14 15 15 15 15 15 15 15 15 14 15 15 17 17 16 17 17 18 19 19 19 19 18 18 17 16 15 14 14 14 13 13 13 11 6 17 15 11 10 10 11 12 13 11 20 20 21 21 20 21 22 24 24 24 18
7 7 6 9 8 10 7 7 8 6 8 9 9 9 8 7 7 8 8 9 10 11 12 12 12 13 13 13 13 13 14 15 15 15 15 15 15 15 15 15 14 15 17 17 18 17 18 18 18 18 19 19 18 17 17 16 15 14 14 13 13 14 14 13 9 12 13 11 12 11 13 12 13 12 17 20 21 21 19 16 17 22 24 22 21
7 7 7 7 8 8 6 6 8 8 4 7 9 9 8 8 7 7 8 9 9 10 12 12 12 12 13 13 13 13 14 15 15 15 15 15 15 15 15 15 14 15 16 16 17 17 18 18 19 19 19 19 18 17 16 15 14 14 13 13 13 13 13 10 14 15 11 12 14 14 12 13 12 12 16 18 20 20 16 14 13 15 16 21 24
7 6 7 8 10 8 7 6 6 8 6 5 9 9 9 8 7 8 8 8 9 10 11 12 11 13 13 13 13 13 14 14 14 14 15 14 15 15 16 15 15 15 16 16 17 17 17 18 19 19 19 17 16 16 15 15 14 14 13 13 13 14 13 12 14 11 13 15 14 12 13 14 11 10 16 17 20 19 16 17 17 18 20 22 22
8 6 7 7 10 7 6 6 5 6 6 7 9 9 9 8 7 7 8 8 9 10 11 11 12 12 13 13 12 13 14 14 14 14 14 14 15 15 16 15 15 16 16 16 17 17 16 17 17 17 17 17 16 16 16 15 14 14 14 12 11 12 10 13 10 12 13 15 13 12 13 12 13 14 19 20 19 18 19 20 20 20 21 21 21
7 6 6 7 8 7 7 6 5 4 4 5 8 10 9 9 8 8 7 8 9 10 11 12 12 12 13 13 12 13 14 13 14 14 14 14 15 15 15 15 15 16 16 16 16 16 16 16 17 17 17 16 16 15 15 15 14 14 13 12 13 13 11 14 11 12 12 13 13 13 13 11 12 17 18 18 18 19 19 19 20 19 20 20 20
6 6 5 5 6 7 7 6 5 3 2 2 5 7 9 9 9 8 7 8 9 10 10 11 12 12 12 13 13 13 14 14 14 14 14 14 14 14 15 14 15 15 16 15 16 15 15 16 16 16 16 16 15 15 15 15 15 14 13 12 12 10 8 11 12 11 10 12 12 13 14 12 12 17 19 20 19 20 20 20 20 21 20 19 19
6 4 6 5 7 7 7 6 5 3 2 2 4 4 9 9 8 7 7 8 8 9 9 10 11 11 12 13 13 14 14 14 14 14 14 14 14 14 14 14 15 15 15 16 16 15 15 16 16 16 16 15 15 15 15 15 15 15 14 13 14 13 13 10 8 9 10 10 10 13 13 12 18 19 20 20 21 21 21 21 21 23 21 21 20
2 4 5 4 4 7 6 6 3 3 3 1 3 3 4 8 7 7 7 7 8 9 9 10 11 12 12 12 13 14 14 14 14 14 14 14 14 14 14 15 15 15 15 16 16 15 15 16 16 15 15 15 15 15 15 15 15 14 14 13 11 14 12 11 9 10 9 10 9 11 12 13 20 19 21 21 23 22 21 21 21 24 24 23 22
5 5 6 6 4 4 5 7 6 4 2 1 2 4 3 4 7 8 8 7 8 9 9 10 9 12 11 13 13 13 14 14 14 14 13 13 14 14 14 14 15 15 16 15 15 15 16 16 16 15 15 15 15 15 15 15 15 14 13 12 11 13 11 12 9 9 9 9 10 10 11 10 16 19 20 22 22 22 21 22 23 23 23 24 24
2 5 4 5 5 4 4 5 6 6 5 5 5 5 3 3 6 7 7 7 7 9 8 9 10 10 11 10 12 12 12 14 13 13 13 13 13 13 14 14 15 15 15 16 16 16 16 16 16 16 16 16 16 16 15 15 14 14 13 11 11 11 10 11 9 10 10 9 10 8 9 14 19 19 20 21 22 21 22 23 23 22 22 23 24
3 3 4 4 3 3 5 5 5 6 6 6 7 5 5 1 4 7 7 7 7 8 8 10 9 10 11 12 12 11 11 12 11 11 11 11 11 11 12 13 14 15 15 16 16 16 16 16 16 16 16 16 16 16 16 15 14 13 13 10 11 10 11 10 10 10 11 10 9 10 11 16 17 19 20 20 21 21 22 22 23 22 23 23 24
4 5 6 5 5 4 5 5 4 5 6 6 6 6 4 4 1 6 8 7 7 9 9 10 10 10 11 13 13 12 11 11 13 11 10 10 10 11 11 13 14 15 15 15 16 16 16 16 16 16 16 16 16 16 15 15 15 13 11 11 11 12 8 9 11 12 11 9 10 10 12 17 19 19 20 20 20 21 21 20 22 23 23 25 25
4 7 7 7 6 5 4 5 5 4 5 6 6 6 4 2 3 5 6 9 9 9 9 10 10 10 11 12 12 10 10 8 9 10 11 10 10 11 12 14 15 15 15 15 16 16 17 17 17 17 17 16 15 15 14 15 14 14 11 10 12 10 9 11 11 10 9 9 9 12 21 18 17 19 20 20 21 20 19 20 22 23 23 23 24
6 5 5 7 7 5 5 5 6 6 4 4 3 5 5 4 6 6 7 7 8 9 8 8 8 8 10 9 7 8 7 7 9 10 10 11 11 11 12 13 15 15 15 16 16 15 15 15 14 13 11 8 5 6 7 9 11 11 12 12 9 8 10 11 10 9 10 8 9 10 18 18 17 21 22 22 21 22 23 23 23 23 24 24 24
7 6 5 7 5 6 5 6 3 5 6 5 3 5 6 7 7 6 6 8 8 9 8 9 8 9 10 8 6 5 7 7 7 8 9 11 11 11 12 13 15 15 15 16 15 14 14 13 12 11 8 6 6 5 5 5 6 10 10 9 8 8 9 10 10 10 10 9 8 10 17 18 18 19 21 23 22 22 22 23 23 24 24 25 26
8 7 6 4 6 6 5 3 3 5 6 6 5 5 6 7 5 5 6 7 8 7 7 8 7 8 8 8 6 6 6 7 13 15 12 9 9 12 14 15 14 13 13 11 12 12 13 10 8 7 6 6 5 6 5 5 6 6 7 7 7 8 9 10 9 9 9 11 10 18 19 18 18 18 19 20 21 22 24 24 25 25 26 27 26
6 9 6 6 7 6 5 4 3 3 6 4 3 5 6 6 7 6 6 6 8 7 6 7 7 8 7 6 6 6 7 9 9 9 7 8 8 9 8 7 8 8 8 8 6 5 4 4 5 6 6 6 6 6 5 6 6 6 7 7 7 8 9 9 9 9 9 10 13 19 18 20 20 20 19 19 19 20 23 24 23 24 26 28 28
5 5 7 6 6 6 6 5 5 4 7 5 5 4 4 6 7 5 7 7 8 8 7 6 7 8 7 6 7 7 6 9 8 8 8 8 8 7 7 7 7 7 7 6 4 4 5 4 5 6 6 6 6 7 7 7 7 7 6 7 7 8 8 8 9 9 10 10 12 19 19 19 21 22 22 21 20 20 21 23 25 26 27 27 27
6 7 6 6 6 6 6 5 6 6 7 6 5 5 5 3 4 4 6 7 7 7 7 8 7 8 8 7 6 6 7 8 9 8 9 8 8 7 6 7 7 6 6 5 5 5 5 5 5 6 6 6 7 8 8 8 7 7 7 7 7 7 8 8 8 9 9 10 12 22 18 22 21 22 23 23 23 23 22 22 24 26 26 25 25
6 9 7 6 5 6 6 6 5 5 6 8 7 6 5 4 3 1 4 7 7 8 7 6 7 8 8 7 7 7 8 7 8 7 9 8 8 8 7 7 6 6 6 5 6 5 5 5 6 6 6 7 8 8 7 8 8 7 8 7 7 7 8 8 8 9 9 9 11 19 21 23 22 24 23 22 24 23 22 25 25 25 25 25 25
9 10 8 7 7 6 6 7 7 7 6 8 9 8 6 5 3 3 1 3 6 7 7 6 6 6 7 8 7 7 7 8 8 8 8 8 8 8 7 7 7 6 5 6 5 6 5 5 5 5 6 6 7 7 7 8 7 7 7 7 7 7 7 7 8 9 9 9 10 16 25 24 23 24 25 25 23 22 22 22 23 24 23 23 23
8 8 8 7 6 7 7 7 7 6 6 6 7 9 7 6 5 3 2 2 1 2 5 6 5 5 5 6 6 5 5 6 8 8 7 6 8 6 6 6 6 6 5 6 5 5 5 4 5 6 7 6 7 7 7 7 8 7 7 7 6 7 7 7 8 8 8 9 10 12 25 25 25 23 23 23 24 23 23 23 23 23 22 22 22
9 9 8 6 6 5 5 6 6 5 4 6 7 8 8 6 4 4 3 3 3 1 3 5 6 6 5 7 6 2 3 4 4 6 6 7 5 5 6 6 8 6 5 5 5 6 5 5 5 5 6 6 7 6 7 7 7 7 7 7 6 7 7 7 8 8 8 8 9 10 15 26 27 26 24 23 23 23 24 23 23 23 22 22 22
9 9 7 6 5 6 6 6 6 5 6 7 7 8 8 5 4 5 4 4 4 4 3 5 5 5 5 7 7 4 1 4 6 6 8 8 8 7 7 7 7 6 6 5 5 5 5 6 6 5 6 6 6 6 6 6 7 7 7 7 7 7 7 7 8 8 8 8 8 9 10 12 23 25 24 24 23 23 22 23 23 22 22 22 22
7 8 7 6 6 6 5 6 6 5 7 8 7 8 7 5 5 6 5 4 4 4 5 5 5 5 4 6 7 6 5 5 6 6 8 7 8 8 7 7 7 5 5 7 8 6 6 6 7 6 6 6 7 7 6 6 7 7 7 7 6 7 7 7 7 7 8 7 7 7 8 9 10 17 23 23 23 24 23 22 21 21 21 21 21
7 6 7 7 6 4 3 3 4 6 6 7 8 7 5 3 6 7 6 5 4 4 4 4 5 5 5 6 6 6 5 5 8 7 8 8 8 7 8 7 6 7 7 7 6 4 6 7 7 7 6 6 7 6 6 6 6 6 7 6 7 7 7 7 7 7 7 7 7 7 7 7 7 8 9 20 24 23 23 23 22 21 20 20 20
6 7 8 7 7 5 4 3 4 5 2 4 4 7 6 7 6 6 6 5 4 4 4 4 3 4 4 5 6 7 7 8 9 9 8 7 8 8 7 6 6 7 5 4 5 6 5 6 6 7 6 6 7 7 6 6 6 7 7 6 6 6 7 7 7 7 7 7 7 7 7 6 6 6 7 7 14 21 23 23 23 22 21 21 20
8 7 7 7 7 6 6 5 6 7 6 7 6 4 4 7 6 5 4 4 4 4 3 4 4 3 2 2 2 1 7 9 10 9 9 7 8 8 7 8 9 7 6 6 5 7 5 5 6 6 8 7 7 7 6 7 7 7 6 6 6 6 6 6 6 7 6 6 7 7 7 7 6 6 6 7 7 11 20 22 22 22 22 21 20
8 8 8 8 8 7 7 7 8 8 9 9 6 2 4 5 4 4 4 4 3 3 3 3 4 4 3 3 3 3 3 7 10 10 8 8 7 8 8 9 8 8 8 7 6 5 6 6 6 5 6 8 7 8 7 7 7 8 7 6 5 6 6 6 6 6 5 6 6 6 7 6 6 7 6 6 5 6 11 17 20 21 21 21 20
8 8 9 9 8 8 7 8 8 8 9 8 6 5 3 4 4 4 3 4 3 2 2 3 3 3 4 4 4 5 3 5 7 8 7 7 7 8 9 9 7 7 8 6 5 6 6 7 8 6 6 8 7 8 8 7 6 7 7 6 6 6 6 6 6 6 5 6 6 6 6 6 6 6 6 6 6 6 5 9 13 16 20 19 20
8 10 9 9 8 8 8 8 8 9 8 7 5 4 3 3 5 5 4 3 2 2 2 1 2 3 3 5 4 6 4 5 7 8 9 8 8 9 9 9 7 7 7 6 6 7 7 6 8 8 6 6 7 7 8 7 8 7 7 7 6 7 5 5 5 5 5 6 6 6 5 6 6 6 6 6 6 6 7 6 6 6 8 17 18
9 10 11 10 9 9 8 9 9 9 7 6 5 4 3 4 4 4 3 3 2 2 2 2 2 2 3 5 5 6 6 5 6 8 9 9 9 9 10 10 9 9 9 9 7 7 9 9 9 10 9 7 7 7 8 9 9 8 8 7 7 7 7 5 6 5 5 4 4 5 5 5 5 6 6 6 6 6 6 6 6 6 6 9 15
11 11 11 11 11 10 10 11 10 9 6 6 6 6 6 5 4 5 4 4 3 2 2 2 2 2 2 2 3 4 6 7 7 8 9 9 8 8 9 8 8 8 8 9 9 9 9 9 9 7 10 10 8 7 8 9 9 8 7 7 7 6 6 6 6 5 5 4 4 4 4 5 5 5 5 5 6 6 6 6 6 6 6 6 7
12 13 13 12 12 11 12 11 10 8 7 7 6 6 5 6 5 5 5 5 4 3 3 2 2 1 2 2 3 3 3 4 5 5 8 10 9 8 8 8 8 6 6 7 10 9 9 8 9 9 7 9 8 9 8 8 5 6 8 6 6 5 5 5 5 5 5 4 4 5 5 5 5 4 4 5 6 6 6 6 6 6 7 6 6
13 13 12 12 12 12 11 12 11 9 8 7 7 6 6 6 6 6 6 5 3 2 3 3 3 2 1 2 3 2 2 3 4 6 8 9 8 8 7 7 6 7 8 7 9 9 9 11 11 10 9 6 7 7 9 3 5 7 6 7 5 4 3 3 4 5 4 4 4 5 4 5 5 4 4 4 5 5 5 5 6 6 6 6 6
12 12 13 14 12 11 12 13 11 9 8 8 7 6 6 7 7 6 6 4 4 3 5 4 3 3 3 3 2 2 3 4 5 6 6 8 9 8 8 8 8 8 8 9 9 9 9 9 9 9 9 10 8 7 4 3 3 8 6 3 6 4 4 5 5 4 4 4 4 4 3 3 4 4 4 4 5 5 5 5 6 5 5 6 5
13 13 14 14 10 14 13 13 12 11 9 9 8 7 7 7 6 7 6 7 5 4 4 3 4 4 4 3 3 2 2 3 4 5 6 8 8 8 9 9 8 8 7 8 9 9 9 9 9 9 9 9 9 6 3 3 3 2 1 4 3 3 2 7 7 4 4 4 4 4 3 3 3 3 4 4 4 4 4 4 5 5 5 5 5
13 12 12 12 11 12 13 12 11 13 10 10 9 8 7 7 7 7 7 5 5 6 6 8 6 6 6 5 5 2 2 3 3 4 5 6 7 8 9 8 8 7 7 7 8 8 8 9 8 8 8 6 8 8 6 3 1 2 3 3 3 1 4 7 6 3 3 3 4 3 3 3 3 3 4 4 4 4 3 4 4 4 4 5 5
12 11 11 12 12 12 13 12 12 12 9 9 10 8 8 7 9 8 7 7 7 5 5 4 5 5 5 6 5 3 2 3 3 2 3 4 5 5 8 8 8 7 6 7 8 8 8 7 7 7 7 6 6 7 7 5 3 1 2 3 2 2 3 8 3 6 4 3 4 4 3 3 3 4 4 4 4 4 3 3 3 3 4 4 4
12 11 11 12 13 13 13 14 11 9 8 9 10 9 9 9 9 9 8 8 8 8 8 6 5 5 5 5 5 4 3 3 3 3 4 4 4 4 5 7 8 8 7 6 7 7 7 5 6 6 5 6 6 6 6 6 6 3 2 2 3 2 1 1 2 2 2 5 5 3 3 3 3 3 4 4 4 4 4 3 3 3 3 4 4
11 11 11 11 11 12 12 12 11 9 8 10 10 9 8 9 9 8 8 7 7 6 6 5 5 5 6 5 5 5 4 3 3 4 4 4 4 5 5 6 7 7 6 5 6 7 8 8 8 7 6 5 6 4 5 5 5 4 5 3 2 3 2 1 1 1 0 2 4 5 5 3 2 3 3 3 4 3 3 3 3 2 3 3 3
10 10 11 11 11 11 12 14 12 9 9 10 9 9 8 8 9 9 10 7 7 7 6 6 6 6 6 6 5 5 4 4 4 4 5 5 5 5 5 6 6 6 7 6 6 6 7 7 6 5 4 5 3 3 4 4 2 5 4 4 3 2 2 1 1 1 1 2 1 5 6 6 4 4 4 4 4 4 3 3 2 3 2 3 3
10 11 11 11 11 11 14 14 14 10 10 10 10 10 9 9 7 7 7 8 8 8 7 7 6 7 7 6 6 5 5 4 4 4 4 5 5 5 5 5 5 5 5 6 6 6 6 6 5 5 5 4 4 3 4 3 4 4 3 3 3 3 2 3 3 2 1 1 1 3 4 4 2 5 4 4 4 3 3 2 2 2 2 2 2
Wind_Direction
126 119 115 97 102 117 136 148 122 105 103 90 84 98 96 97 106 103 97 92 91 89 89 86 83 79 74 71 67 65 63 61 60 60 60 62 62 62 62 63 65 65 66 65 67 73 76 76 73 71 72 69 68 65 61 58 54 52 52 53 55 58 60 60 63 68 71 68 61 56 56 57 56 54 52 48 44 42 41 40 44 46 44 44 48
134 127 120 113 99 104 148 151 118 111 113 119 124 107 107 109 112 104 104 101 94 92 92 89 86 82 76 71 68 66 64 62 61 61 62 62 62 63 64 64 66 68 69 69 71 70 73 73 74 75 76 74 70 66 62 59 56 54 54 55 57 58 56 52 51 52 67 80 76 66 56 55 55 52 51 51 48 46 45 46 45 48 43 43 45
129 133 120 106 98 99 126 114 128 116 111 107 104 106 109 109 105 109 108 105 99 96 92 88 85 81 76 71 70 68 65 64 62 61 64 64 63 64 65 66 67 70 71 72 73 74 74 80 79 77 75 74 72 68 65 61 60 57 57 57 56 51 43 35 32 32 36 75 85 82 72 58 54 54 52 52 52 52 50 50 49 49 48 47 49
144 141 125 110 104 108 126 121 127 114 107 103 103 105 105 105 105 107 107 103 101 96 93 91 88 82 76 75 72 68 66 66 63 65 65 66 66 68 69 68 68 68 72 76 76 80 80 86 88 82 79 76 74 71 66 63 62 59 58 58 54 45 37 29 16 5 34 61 60 63 64 60 55 54 55 54 54 54 54 53 53 53 51 49 49
154 145 139 136 123 119 127 127 122 116 113 110 107 107 104 107 111 113 111 108 104 102 99 96 96 89 82 78 74 71 70 68 67 67 67 67 68 69 70 71 71 71 73 78 84 87 92 82 80 84 81 78 74 71 67 67 64 60 59 58 51 43 32 19 10 360 3 68 64 62 63 65 62 54 56 57 57 56 57 57 55 55 54 53 52
154 146 148 138 128 126 110 126 131 122 117 114 111 107 106 106 111 110 108 105 104 105 102 101 97 91 85 80 77 75 72 70 70 69 68 70 70 70 69 70 72 77 80 82 84 81 80 86 87 81 80 77 75 72 69 68 65 62 60 54 45 32 22 13 1 25 53 68 62 60 60 59 56 54 52 56 59 58 58 58 58 55 55 55 55
154 149 147 136 137 116 105 124 128 127 121 113 114 114 111 107 111 114 113 108 107 106 105 104 100 95 91 86 83 81 76 75 73 71 72 73 73 73 72 71 74 78 80 81 81 80 80 81 82 82 80 78 74 72 70 70 66 61 57 51 41 31 18 9 358 41 55 56 54 62 65 61 61 58 54 55 58 59 58 58 57 56 55 55 56
148 153 154 140 140 113 105 118 120 136 127 124 128 121 118 119 116 115 113 111 108 107 109 106 102 96 92 89 87 82 80 77 75 75 76 77 75 76 76 74 77 78 79 79 80 79 80 80 80 81 80 76 73 72 70 70 66 60 54 47 35 18 7 355 12 70 61 61 58 61 63 61 63 63 58 56 56 56 58 59 59 58 57 56 53
159 163 156 121 99 100 92 105 125 126 136 133 126 125 122 120 119 117 116 114 111 109 109 108 105 99 93 90 86 81 79 77 76 77 78 78 78 77 76 75 75 78 81 83 81 79 78 80 82 81 77 72 70 70 69 68 65 57 50 42 30 17 3 341 31 72 72 66 59 55 64 64 61 64 59 58 58 58 58 58 59 60 60 58 58
164 160 147 132 121 98 100 108 122 119 116 142 131 126 125 123 124 121 123 118 115 113 112 112 107 100 95 90 86 83 80 78 77 78 80 80 79 76 74 76 75 75 82 84 83 83 82 78 76 75 72 71 70 70 68 66 62 57 50 42 29 15 1 348 59 55 64 73 72 65 63 59 62 67 68 64 63 59 62 66 67 66 67 64 62
163 154 142 117 122 109 106 103 105 127 140 166 137 130 128 129 137 136 127 126 122 118 116 114 108 102 97 92 88 85 83 80 79 79 80 81 80 78 76 76 77 78 78 82 83 82 78 73 71 71 73 72 71 69 66 63 60 55 48 39 27 13 0 29 58 67 61 56 54 61 66 57 67 65 67 70 65 62 59 62 60 58 57 59 59
161 154 137 113 118 112 99 106 112 117 138 168 148 139 133 141 144 142 135 134 127 123 121 116 109 106 102 98 94 89 84 82 81 81 81 80 80 79 80 78 79 82 84 82 83 82 80 78 76 75 72 70 69 66 65 61 56 50 46 37 25 11 10 57 60 61 58 61 56 50 45 45 52 56 59 59 67 68 58 51 57 60 60 62 61
162 155 145 143 131 112 107 112 106 117 116 162 159 146 142 144 147 143 143 136 131 126 126 122 115 109 106 103 99 92 88 86 85 84 84 82 81 81 81 81 82 82 81 81 83 83 81 77 74 72 71 69 68 66 64 60 56 52 44 32 17 8 7 47 63 63 60 59 56 54 55 56 57 58 63 65 67 64 61 59 56 55 58 59 65
166 156 155 153 121 123 120 117 118 113 85 59 154 153 144 148 151 148 144 137 131 130 128 124 120 116 112 108 102 95 94 90 86 86 86 84 83 83 82 81 81 82 83 82 82 81 80 76 74 73 71 69 69 67 63 58 55 52 44 31 18 10 351 69 60 59 63 68 69 61 55 56 60 59 65 68 66 65 64 64 63 59 58 63 64
148 189 149 154 137 143 125 126 113 122 123 52 150 149 153 150 150 149 144 140 133 132 131 126 121 116 112 108 101 99 95 92 89 88 87 88 87 86 85 84 83 82 82 82 80 79 79 76 73 72 71 72 71 69 64 58 55 50 45 29 20 8 4 66 60 59 59 55 58 69 59 58 57 59 64 69 68 66 66 66 67 65 64 67 67
111 173 157 125 155 140 155 128 115 112 117 67 26 37 169 149 147 151 143 139 135 133 134 130 128 121 116 108 105 102 99 96 95 93 92 92 91 91 91 90 88 86 85 84 82 80 78 76 74 73 73 75 75 70 63 59 54 49 43 31 16 17 23 63 62 57 55 58 57 61 65 56 55 56 61 62 66 67 62 61 61 63 65 68 67
89 72 111 107 127 161 146 155 142 129 176 130 90 48 20 154 149 144 145 138 134 139 134 124 125 120 116 111 105 102 102 102 100 98 98 98 97 97 97 97 96 93 91 89 87 84 82 80 77 74 73 74 72 68 63 58 52 46 38 31 18 25 33 66 67 66 65 58 55 54 52 54 54 56 56 59 58 62 62 60 58 60 62 67 68
166 119 103 120 101 113 142 152 151 179 184 156 114 68 22 177 140 136 137 134 135 133 130 127 129 122 112 105 104 104 106 106 103 102 101 99 99 99 99 100 99 98 95 92 90 87 84 81 77 73 72 70 68 64 60 56 51 44 35 24 26 27 31 59 72 70 66 61 61 59 59 56 54 53 53 55 57 57 58 57 59 59 61 60 63
170 155 143 140 119 144 148 146 162 178 192 185 176 101 64 35 157 139 136 134 130 126 123 128 121 117 114 109 106 104 101 98 96 92 89 89 89 89 95 97 97 97 94 92 89 87 84 80 77 73 71 68 64 61 57 53 49 41 33 23 28 37 38 66 63 64 62 57 59 54 56 55 60 62 59 57 57 55 55 59 61 60 63 64 62
158 179 168 177 134 146 189 151 160 196 197 183 179 163 119 28 160 149 137 129 122 119 121 125 121 120 118 118 115 115 113 111 114 102 89 88 89 93 93 97 96 95 93 92 91 89 85 82 79 78 74 70 65 59 54 51 46 39 28 28 40 44 50 69 65 62 59 57 60 57 42 59 61 65 66 65 62 59 58 58 62 63 62 63 65
190 193 189 177 182 168 173 190 162 171 186 197 178 163 155 161 150 125 136 125 120 119 118 121 127 129 130 130 136 134 126 127 120 111 107 95 90 93 94 96 96 94 94 93 92 91 90 88 86 85 82 79 73 64 54 49 44 39 27 33 50 58 56 55 43 39 42 35 43 55 52 57 65 67 67 65 66 66 62 60 61 64 66 64 62
169 172 197 187 187 181 165 203 175 187 181 189 186 173 174 203 194 161 156 134 124 129 143 147 154 148 139 150 153 144 144 134 113 114 110 107 96 92 96 97 96 94 94 94 92 91 90 89 86 82 78 72 76 73 66 55 42 36 37 36 54 59 68 68 60 48 35 30 32 58 66 64 65 67 70 70 67 66 64 64 64 65 64 63 62
179 175 171 178 175 172 181 184 230 168 182 188 185 190 181 190 201 173 167 156 149 160 163 164 169 161 167 163 157 163 148 137 131 104 103 93 99 97 97 95 94 94 93 93 93 94 91 89 88 86 89 95 71 69 61 56 56 45 45 44 51 55 60 59 57 50 40 26 28 3 79 68 67 70 73 72 71 70 69 67 66 65 66 65 63
187 186 167 165 172 173 150 150 164 199 203 192 194 204 197 187 194 174 173 173 171 180 171 171 177 172 179 174 177 165 147 99 98 107 112 113 101 92 92 91 91 90 96 93 93 91 91 88 92 94 77 65 69 69 65 58 56 52 52 50 50 52 54 57 56 49 41 28 16 12 62 65 65 68 72 78 75 71 68 65 65 67 66 64 63
191 187 181 183 177 165 157 163 182 195 210 180 181 217 212 193 186 181 197 198 185 184 185 180 176 184 190 181 173 162 147 131 137 141 133 126 126 125 124 123 123 121 122 107 113 134 118 95 91 75 71 62 61 62 62 61 59 56 53 51 53 54 59 57 56 53 44 31 17 14 43 61 62 64 68 69 76 75 74 67 62 63 61 58 57
155 175 186 184 182 165 161 168 183 202 203 188 168 210 257 212 198 189 185 202 194 182 190 178 186 187 188 190 175 160 162 148 163 153 136 143 144 150 143 139 137 133 134 128 122 111 95 84 73 70 66 68 67 62 56 56 59 56 53 47 52 59 61 59 59 57 49 37 21 13 29 56 64 65 68 70 69 71 72 65 63 61 61 60 57
178 202 194 196 182 183 171 177 191 192 207 210 181 181 205 213 221 206 208 207 201 193 190 190 190 190 187 187 175 179 168 172 173 157 150 154 157 155 149 145 144 143 138 129 118 101 88 78 75 77 77 78 74 71 67 60 56 58 54 49 51 60 63 60 60 59 53 44 28 20 23 39 55 67 67 67 71 66 65 70 64 61 60 57 54
192 202 199 196 180 189 184 191 210 209 210 214 213 192 182 184 181 235 231 220 203 201 201 193 188 193 192 192 195 185 182 184 178 165 157 163 162 155 151 144 140 132 120 119 114 101 90 87 87 84 83 77 75 74 73 68 61 57 56 52 54 60 63 63 63 61 60 50 41 23 26 36 43 53 52 56 58 62 63 64 64 63 60 60 58
203 202 198 206 193 195 198 204 211 214 224 225 222 217 199 175 179 204 185 244 210 201 197 184 197 190 191 196 198 197 193 191 181 175 165 167 157 159 149 144 136 121 106 88 103 104 97 99 96 92 87 85 82 77 75 70 65 59 56 57 59 61 61 64 64 63 63 61 48 32 33 30 44 50 49 54 58 59 59 60 62 61 62 62 59
200 201 202 206 201 191 207 216 221 222 223 225 227 222 212 194 188 208 164 171 307 258 183 190 188 190 201 205 199 214 207 185 186 180 158 156 160 144 125 112 100 105 113 119 119 112 109 100 99 98 94 88 85 83 82 75 71 62 59 60 57 60 63 63 62 62 66 62 56 48 38 36 36 53 54 54 54 57 57 57 59 61 59 57 57
200 204 199 201 201 197 204 217 220 222 231 225 225 220 212 197 167 210 211 200 148 351 202 182 178 179 201 205 198 214 262 189 163 169 123 125 119 113 107 103 111 114 116 91 77 94 112 109 103 102 98 96 88 85 84 83 78 70 61 60 59 63 62 58 60 61 63 61 64 59 48 41 40 40 54 55 54 53 54 54 52 54 56 56 55
200 199 194 190 184 198 208 212 216 207 219 226 225 226 208 188 161 212 209 200 164 169 194 199 198 201 192 196 190 175 128 104 119 115 125 125 126 113 114 115 102 96 105 109 103 104 86 82 80 78 88 90 90 82 80 82 79 75 70 66 64 66 63 64 62 59 59 63 66 66 60 55 46 44 45 55 56 56 55 57 57 55 55 55 55
194 194 193 177 186 194 206 205 214 215 213 215 218 221 215 195 159 212 204 194 186 194 198 203 205 199 178 198 187 177 156 132 131 127 126 125 122 122 118 119 119 122 103 97 102 106 104 100 101 100 88 89 89 82 80 80 77 76 73 72 71 67 65 65 65 63 61 63 66 68 73 69 65 51 47 47 51 53 54 54 56 55 52 52 53
187 185 181 183 182 176 179 196 209 210 208 212 220 213 197 180 189 197 192 184 175 186 204 201 191 179 191 191 179 168 160 137 132 129 131 131 128 128 131 126 124 121 125 126 118 115 113 112 117 111 109 105 99 93 93 90 86 82 78 74 74 73 75 72 70 68 69 69 70 70 70 71 70 69 58 49 49 52 56 56 55 55 52 52 50
180 181 184 183 179 169 174 195 201 199 94 212 227 219 193 195 200 204 190 178 172 179 175 166 164 169 177 186 182 160 166 151 146 147 147 138 140 135 130 124 121 126 111 97 111 114 115 125 123 118 112 97 96 95 94 93 91 88 85 85 82 85 83 84 81 81 80 80 76 73 68 67 70 72 66 64 49 49 53 54 54 56 56 55 51
186 179 175 181 181 174 167 197 191 204 197 197 216 210 198 195 188 151 142 154 163 152 148 161 141 128 133 69 42 82 172 155 152 151 152 146 143 132 124 131 129 128 121 119 121 127 130 120 114 128 118 106 107 104 100 96 91 88 87 87 89 91 90 85 82 81 84 84 83 80 76 72 71 68 70 73 67 51 52 53 51 50 52 54 53
184 179 178 175 177 176 175 196 196 196 194 190 196 187 193 188 154 128 126 129 115 120 133 129 142 145 139 121 87 77 69 151 159 157 136 136 132 127 132 134 142 138 134 138 139 130 135 123 121 120 117 119 114 110 105 101 97 91 87 86 88 89 87 84 89 88 82 84 85 85 82 79 73 71 67 63 65 69 53 53 53 49 47 48 49
182 181 179 176 179 176 180 190 193 193 193 187 184 170 166 144 126 105 89 95 74 99 108 126 138 136 144 130 131 111 129 120 126 133 125 124 126 130 136 142 138 135 133 131 124 130 131 131 125 119 122 123 123 121 113 106 99 93 87 86 87 86 84 85 84 88 83 81 78 77 78 73 68 67 65 65 62 53 50 49 52 53 46 46 47
181 182 176 177 177 175 178 182 196 188 186 179 149 136 123 100 89 98 95 94 83 53 50 99 93 132 139 133 136 128 136 134 132 129 128 133 133 138 141 144 133 130 120 119 128 137 132 129 129 127 127 121 123 119 115 109 101 96 94 87 83 78 77 81 87 84 85 82 83 83 80 76 70 63 64 62 57 53 47 45 39 42 46 43 44
181 181 179 179 180 173 180 182 193 189 181 159 158 154 146 143 137 112 114 109 96 91 43 43 31 54 101 139 146 135 141 140 135 134 136 136 142 150 149 148 141 142 143 145 154 147 143 136 135 137 129 116 111 117 123 116 102 98 96 87 78 76 77 81 83 85 86 84 84 86 81 81 74 67 65 61 57 54 51 47 43 37 37 37 41
186 182 182 184 183 176 180 189 190 187 178 170 168 165 162 139 136 163 151 137 125 99 82 61 32 41 14 57 98 115 138 144 147 148 141 135 138 143 144 147 146 149 153 152 151 143 146 146 138 137 136 131 129 136 130 127 123 110 100 94 87 78 79 78 78 76 81 87 86 84 83 85 82 78 70 65 62 58 58 51 44 39 33 29 30
189 186 186 184 181 178 184 190 190 185 190 184 164 173 170 170 159 157 142 141 132 149 131 128 105 21 3 57 69 82 116 138 146 147 148 151 145 144 146 148 150 150 131 129 140 143 152 148 143 138 149 140 140 152 150 142 137 139 136 124 101 93 85 86 77 79 83 81 81 83 84 77 84 88 91 82 70 65 59 54 49 43 36 31 26
184 187 186 181 182 183 184 191 193 184 187 180 170 177 175 171 164 146 144 120 90 98 128 116 133 141 111 56 80 93 124 145 152 153 155 154 151 143 141 140 147 142 131 136 147 156 162 158 158 150 149 144 139 158 173 201 140 143 128 124 142 139 137 113 98 85 81 86 92 88 88 87 79 85 83 79 79 71 62 56 54 47 41 31 27
185 185 186 186 184 186 184 188 191 182 181 175 179 164 116 85 73 91 96 110 140 111 105 122 135 147 142 120 86 120 161 160 162 153 151 149 149 146 141 148 153 159 152 151 163 165 164 165 162 159 151 145 157 165 192 214 192 147 156 214 165 161 147 181 142 105 99 86 88 99 100 99 99 99 87 81 78 72 67 64 58 53 45 38 30
189 188 186 186 185 185 182 185 187 186 183 170 165 123 114 103 99 88 90 94 90 116 126 151 165 164 135 143 136 96 145 151 155 157 155 151 148 148 149 150 157 166 161 159 165 169 167 168 162 159 167 155 152 154 197 212 273 20 322 137 147 206 203 130 137 131 155 131 101 102 95 103 108 100 101 93 91 84 79 70 68 59 50 44 31
193 188 186 187 182 181 182 181 185 190 184 168 153 148 149 144 142 147 155 160 154 164 178 170 173 169 168 138 110 102 120 125 135 145 159 151 135 145 149 156 154 161 164 161 162 158 169 167 168 162 161 159 150 151 168 204 310 76 50 29 7 6 118 150 167 147 147 92 117 114 114 114 118 113 107 112 107 97 84 77 72 67 56 44 35
194 183 184 186 182 181 180 176 187 188 175 163 155 155 155 160 166 168 163 165 161 178 172 166 158 157 143 141 124 115 112 128 105 125 129 128 116 129 150 155 162 167 159 164 167 168 168 166 159 166 162 154 154 163 169 169 155 114 44 35 45 323 106 141 199 110 168 158 171 153 135 133 116 120 118 113 113 111 98 86 72 76 65 46 38
185 183 183 183 183 179 173 176 181 178 166 160 164 170 164 171 173 174 174 177 179 168 168 158 147 135 135 131 127 127 121 121 129 130 144 130 117 132 152 159 165 172 169 171 167 166 159 155 161 162 161 163 170 172 166 162 171 154 151 146 115 67 103 28 3 195 132 155 165 131 123 144 141 124 126 123 120 111 109 91 71 65 65 56 41
184 180 181 180 177 178 176 175 177 173 159 163 171 176 174 173 179 180 175 187 175 155 138 126 134 143 136 136 135 136 139 131 141 136 148 147 137 154 160 160 164 163 170 169 162 163 158 152 161 167 164 162 180 176 161 166 191 150 150 138 134 121 122 106 9 357 84 168 151 171 163 145 161 146 130 121 106 107 102 94 87 64 74 59 43
182 175 178 180 178 181 184 176 179 174 164 171 177 177 176 172 186 190 182 160 137 131 139 142 146 152 148 149 145 151 155 154 148 155 154 159 161 161 165 169 165 160 166 157 148 150 147 149 152 148 145 151 147 146 163 164 175 130 167 142 147 136 137 141 172 112 8 340 144 180 159 165 176 157 147 143 133 128 123 123 113 86 65 57 37
176 178 178 178 181 188 193 180 191 175 168 173 176 180 184 187 192 189 180 150 153 145 146 150 154 160 159 161 162 164 162 163 160 164 165 155 164 162 168 165 161 158 157 139 148 146 141 141 141 133 132 140 141 111 96 100 115 129 141 161 158 170 167 169 159 178 176 158 86 118 138 180 175 144 155 133 140 133 124 121 109 86 71 64 40